User: anonymous   Login
Location: Cypress Hills Dark-Sky Preserve - CHICO
(49.6176°N, 110.2634°W)
Time: 20:54:26
(UTC-07:00)
Language:

SPOT 5 - Orbit

View from above orbital plane
View from above orbital plane
View from above satellite
View from above satellite

Ground track
Ground track

The orbit data is extracted from the following two-line orbital elements,

1 27421U 02021A   17326.79080997  .00000042  00000-0  20916-4 0  9997
2 27421  98.3872  30.0972 0134601 202.3601 157.1680 14.51898141808685
Epoch (UTC): 22 November 2017 18:58:45
Eccentricity: 0.0134601
inclination: 98.3872°
perigee height: 624 km
apogee height: 815 km
right ascension of ascending node: 30.0972°
argument of perigee: 202.3601°
revolutions per day: 14.51898141
mean anomaly at epoch: 157.1680°
orbit number at epoch: 80868

The dashed part of the orbit path shows where the satellite is in the earth's shadow,  

DLR